Погода в Новоселовке

Украина / Одесская область     46°59′32″N   29°54′42″E
темп.,
°C
ветер,
м/с
пор.,
м/с
влажн.,
%
обл.,
%
осадки,
мм/ч
давл.,
гПа
погр.,
м
2 марта, вт
вт223:00+1с4782100 0.1 1033531
02:00+1ссз3681100 0.1 1034308
05:000сз228589 0.0 103223
08:00+1зсз248168 0.0 1032199
11:00+6зсз46617 0.0 1030897
14:00+8з68584 0.0 1028819
17:00+8зсз6116062 0.0 1025782
20:00+5зсз5147442 0.0 1025470
3 марта, ср
ср323:00+5сз614763 0.0 1025579
02:00+4ссз4108320 0.0 1027768
05:00+4с5972100 0.0 1028786
08:00+3сз597780 0.0 1030504
11:00+7ссз56590 0.0 1030936
14:00+8сз45450 0.0 10291249
17:00+8сз345085 0.0 1028847
20:00+5зсз126092 0.0 102822
4 марта, чт
чт423:00+3юз12623 0.0 102722
02:00+2ююз34671 0.0 102655
05:00+2ююз34810 0.0 102358
08:00+3ююз59820 0.0 1021276
11:00+9юз610610 0.0 1019590
14:00+12юз79519 0.0 1016876
17:00+12зюз475634 0.0 1014254
20:00+8зюз336118 0.0 101427
5 марта, пт
пт523:00+7юз11600 0.0 101322
02:00+6ю226817 0.0 101322
05:00+5юв227393 0.0 101222
08:00+6ююв237596 0.0 101169
11:00+11юз345294 0.0 1010360
14:00+15сз443747 0.0 10091180
17:00+13с46508 0.0 1010297
20:00+8ссв597550 0.0 1011322
6 марта, сб
сб623:00+6ссв4787100 0.0 1013447
02:00+5с6991100 0.4 1015438
05:00+1с81294100 0.3 1017597
08:00+1ссв71167100 0.6 1020904
11:00+3с81046100 0.0 10221324
14:00+3с7944100 0.0 10231529
17:00+2с693867 0.0 10241929
20:000сз355033 0.0 1026105